Kerkira, Greece

6:27 PM EET on December 07, 2016 (GMT +0200)
Ioannis Kapodistrias

Weather History for LGKR - May, 2013

Change the Weather History Date:

Wednesday, May 8, 2013

  Actual Average Record
Temperature  
Mean Temperature 67 °F -  
Max Temperature 77 °F 73 °F 87 °F (2003)
Min Temperature 57 °F 55 °F 48 °F (2008)
Cooling Degree Days 2    
Growing Degree Days 17 (Base 50)    
Moisture  
Dew Point 59 °F    
Average Humidity 74    
Maximum Humidity 94    
Minimum Humidity 44    
Precipitation  
Precipitation 0.02 in - - ()
Sea Level Pressure  
Sea Level Pressure 29.88 in    
Wind  
Wind Speed 3 mph ()    
Max Wind Speed 15 mph    
Max Gust Speed 23 mph    
Visibility 6.4 miles    
Events Rain , Thunderstorm    
Averages and records for this station are not official NWS values.
T = Trace of Precipitation, MM = Missing Value Source: Averaged Metar Reports

Daily Weather History Graph

Daily Weather History Graph

Search for Another Location

Airport or City:

Trip Planner

Search our weather history database for the weather conditions in past years. The results will help you decide how hot, cold, wet, or windy it might be!

Date:

Astronomy

May. 08, 2013 Rise Set
Actual Time 6:33 AM EEST 8:41 PM EEST
Civil Twilight 6:03 AM EEST 9:11 PM EEST
Nautical Twilight 5:26 AM EEST 9:47 PM EEST
Astronomical Twilight 4:47 AM EEST 10:27 PM EEST
Moon 5:30 AM EEST (5/8) 7:21 PM EEST (5/8)
Length of Visible Light 15h 07m
Length of Day
14h 08m
Waning Crescent, 3% of the Moon is Illuminated
May 8
Waning Crescent
May 10
New
May 18
First Quarter
May 25
Full
May 31
Last Quarter

Hourly Weather History & Observations

Time (EEST) Temp. Dew Point Humidity Pressure Visibility Wind Dir Wind Speed Gust Speed Precip Events Conditions
12:20 AM 64.4 °F 59.0 °F 83% 29.95 in 6.2 mi West 3.5 mph - N/A   Partly Cloudy
12:50 AM 64.4 °F 59.0 °F 83% 29.95 in 6.2 mi Calm Calm - N/A   Partly Cloudy
1:20 AM 62.6 °F 59.0 °F 88% 29.95 in 6.2 mi Calm Calm - N/A   Partly Cloudy
1:50 AM 62.6 °F 60.8 °F 94% 29.95 in 6.2 mi Calm Calm - N/A   Partly Cloudy
2:20 AM 62.6 °F 59.0 °F 88% 29.95 in 6.2 mi Calm Calm - N/A   Partly Cloudy
2:50 AM 60.8 °F 57.2 °F 88% 29.92 in 6.2 mi Calm Calm - N/A   Partly Cloudy
3:00 AM 61 °F 57 °F 82% 29.94 in 6 mi Calm Calm - -   Scattered Clouds
3:20 AM 60.8 °F 57.2 °F 88% 29.92 in 6.2 mi Calm Calm - N/A   Partly Cloudy
3:50 AM 59.0 °F 55.4 °F 88% 29.92 in 6.2 mi Calm Calm - N/A   Partly Cloudy
4:20 AM 59.0 °F 55.4 °F 88% 29.92 in 6.2 mi Calm Calm - N/A   Partly Cloudy
4:50 AM 59.0 °F 55.4 °F 88% 29.92 in 6.2 mi Calm Calm - N/A   Partly Cloudy
5:20 AM 59.0 °F 55.4 °F 88% 29.92 in 6.2 mi Calm Calm - N/A   Partly Cloudy
5:50 AM 59.0 °F 57.2 °F 94% 29.89 in 6.2 mi WNW 3.5 mph - N/A   Partly Cloudy
6:20 AM 57.2 °F 55.4 °F 94% 29.89 in 6.2 mi WNW 3.5 mph - N/A   Partly Cloudy
6:50 AM 57.2 °F 55.4 °F 94% 29.89 in 6.2 mi Calm Calm - N/A   Partly Cloudy
7:20 AM 57.2 °F 55.4 °F 94% 29.89 in 6.2 mi Calm Calm - N/A   Partly Cloudy
7:50 AM 60.8 °F 55.4 °F 82% 29.89 in 6.2 mi Calm Calm - N/A   Scattered Clouds
8:20 AM 64.4 °F 55.4 °F 73% 29.89 in 6.2 mi Calm Calm - N/A   Scattered Clouds
8:50 AM 66.2 °F 59.0 °F 78% 29.89 in 6.2 mi Calm Calm - N/A   Scattered Clouds
9:00 AM 65 °F 58 °F 72% 29.91 in 12 mi Calm Calm - -   Scattered Clouds
9:20 AM 68.0 °F 59.0 °F 73% 29.89 in 6.2 mi Calm Calm - N/A   Scattered Clouds
9:50 AM 69.8 °F 59.0 °F 68% 29.89 in 6.2 mi East 4.6 mph - N/A   Scattered Clouds
10:20 AM 71.6 °F 59.0 °F 64% 29.89 in 6.2 mi ESE 5.8 mph - N/A   Scattered Clouds
10:50 AM 73.4 °F 59.0 °F 61% 29.89 in 6.2 mi ESE 5.8 mph - N/A   Scattered Clouds
11:20 AM 75.2 °F 59.0 °F 57% 29.89 in 6.2 mi SE 8.1 mph - N/A   Scattered Clouds
11:50 AM 75.2 °F 60.8 °F 61% 29.89 in 6.2 mi SE 8.1 mph - N/A   Scattered Clouds
12:20 PM 75.2 °F 60.8 °F 61% 29.89 in 6.2 mi SE 6.9 mph - N/A   Scattered Clouds
12:50 PM 75.2 °F 60.8 °F 61% 29.89 in 6.2 mi ESE 8.1 mph - N/A   Scattered Clouds
1:20 PM 75.2 °F 60.8 °F 61% 29.89 in 6.2 mi WSW 8.1 mph - N/A   Scattered Clouds
1:50 PM 77.0 °F 60.8 °F 57% 29.86 in 6.2 mi West 11.5 mph - N/A   Scattered Clouds
2:20 PM 77.0 °F 60.8 °F 57% 29.86 in 6.2 mi West 15.0 mph - N/A   Scattered Clouds
2:50 PM 77.0 °F 59.0 °F 54% 29.86 in 6.2 mi West 10.4 mph - N/A   Scattered Clouds
3:00 PM 76 °F 58 °F 44% 29.86 in 12 mi West 10.4 mph - -   Partly Cloudy
3:20 PM 77.0 °F 59.0 °F 54% 29.86 in 6.2 mi West 10.4 mph - N/A   Scattered Clouds
3:50 PM 77.0 °F 59.0 °F 54% 29.83 in 6.2 mi West 4.6 mph - N/A   Scattered Clouds
4:20 PM 77.0 °F 59.0 °F 54% 29.83 in 6.2 mi ENE 10.4 mph - N/A   Mostly Cloudy
4:50 PM 77.0 °F 59.0 °F 54% 29.83 in 6.2 mi NE 6.9 mph - N/A   Mostly Cloudy
5:20 PM 78.8 °F 59.0 °F 51% 29.83 in 6.2 mi NE 6.9 mph - N/A   Mostly Cloudy
5:50 PM 77.0 °F 59.0 °F 54% 29.80 in 6.2 mi NE 9.2 mph - N/A   Mostly Cloudy
6:20 PM 77.0 °F 59.0 °F 54% 29.80 in 6.2 mi NE 9.2 mph - N/A   Mostly Cloudy
6:50 PM 75.2 °F 59.0 °F 57% 29.80 in 6.2 mi ENE 6.9 mph - N/A   Mostly Cloudy
7:20 PM 73.4 °F 59.0 °F 61% 29.80 in 6.2 mi East 10.4 mph 23.0 mph N/A Thunderstorm Thunderstorm
7:50 PM 69.8 °F 59.0 °F 68% 29.83 in 6.2 mi East 11.5 mph - N/A Thunderstorm Thunderstorm
8:20 PM 69.8 °F 59.0 °F 68% 29.83 in 6.2 mi East 11.5 mph - N/A Rain , Thunderstorm Light Thunderstorms and Rain
8:50 PM 64.4 °F 60.8 °F 88% 29.86 in 6.2 mi NNE 4.6 mph - N/A Rain , Thunderstorm Light Thunderstorms and Rain
9:00 PM 65 °F 60 °F 80% 29.86 in 6 mi NNE 4.6 mph - - Rain , Thunderstorm Thunderstorms and Rain
9:20 PM 64.4 °F 60.8 °F 88% 29.86 in 6.2 mi NNE 4.6 mph - N/A Rain , Thunderstorm Thunderstorms and Rain
9:50 PM 62.6 °F 60.8 °F 94% 29.86 in 6.2 mi Calm Calm - N/A Rain Light Rain
10:20 PM 62.6 °F 60.8 °F 94% 29.86 in 6.2 mi Calm Calm - N/A Rain Light Rain
10:50 PM 62.6 °F 60.8 °F 94% 29.86 in 6.2 mi Calm Calm - N/A   Mostly Cloudy
11:20 PM 62.6 °F 60.8 °F 94% 29.86 in 6.2 mi Calm Calm - N/A   Mostly Cloudy
11:50 PM 62.6 °F 59.0 °F 88% 29.86 in 6.2 mi Calm Calm - N/A   Scattered Clouds